Weather History for Driggs, ID

Change the Weather History Date:

Saturday, November 3, 2012

  Actual Average (KRXE) Record (KRXE)
Temperature  
Mean Temperature 39 °F 37 °F  
Max Temperature 52 °F 49 °F 61 °F (2010)
Min Temperature 26 °F 26 °F 17 °F (2000)
Degree Days  
Heating Degree Days 26 28  
Month to date heating degree days 82  
Since 1 July heating degree days 1069  
Cooling Degree Days 0 0  
Month to date cooling degree days 0  
Year to date cooling degree days 208  
Moisture  
Dew Point 26 °F    
Average Humidity 64    
Maximum Humidity 89    
Minimum Humidity 34    
Precipitation  
Precipitation 0.00 in 0.04 in 0.24 in (2006)
Month to date precipitation 0.12  
Year to date precipitation 11.11  
Sea Level Pressure  
Sea Level Pressure 30.20 in    
Wind  
Wind Speed 3 mph (SSE)    
Max Wind Speed 10 mph    
Max Gust Speed -    
Visibility 10 miles    
Events      
T = Trace of Precipitation, MM = Missing Value Source: NWS Daily Summary

Daily Weather History Graph

Daily Weather History Graph

Search for Another Location

Airport:

Trip Planner

Search our weather history database for the weather conditions in past years. The results will help you decide how hot, cold, wet, or windy it might be!

Date:

Astronomy

Nov. 03, 2012 Rise Set
Actual Time 8:03 AM MDT 6:11 PM MDT
Civil Twilight 7:33 AM MDT 6:41 PM MDT
Nautical Twilight 6:59 AM MDT 7:15 PM MDT
Astronomical Twilight 6:25 AM MDT 7:49 PM MDT
Moon 9:53 PM MDT (11/3) 12:13 PM MDT (11/3)
Length of Visible Light 11h 08m
Length of Day
10h 07m
Waning Gibbous, 80% of the Moon is Illuminated
Nov 3
Waning Gibbous
Nov 6
Last Quarter
Nov 13
New
Nov 20
First Quarter
Nov 28
Full

Hourly Weather History & Observations

Time (MDT) Temp. Windchill Dew Point Humidity Pressure Visibility Wind Dir Wind Speed Gust Speed Precip Events Conditions
1:56 AM 30.0 °F 25.2 °F 26.1 °F 85% 30.14 in 10.0 mi East 4.6 mph - N/A   Clear
2:56 AM 29.1 °F - 24.1 °F 81% 30.13 in 10.0 mi Calm Calm - N/A   Clear
3:56 AM 28.0 °F - 25.2 °F 89% 30.14 in 10.0 mi Calm Calm - N/A   Clear
4:56 AM 27.1 °F 21.8 °F 24.1 °F 88% 30.15 in 10.0 mi NE 4.6 mph - N/A   Clear
5:56 AM 29.1 °F - 22.1 °F 75% 30.17 in 10.0 mi Calm Calm - N/A   Clear
6:56 AM 26.1 °F - 21.0 °F 81% 30.21 in 10.0 mi Calm Calm - N/A   Clear
7:56 AM 28.0 °F 24.2 °F 22.1 °F 78% 30.23 in 10.0 mi SSE 3.5 mph - N/A   Clear
9:56 AM 38.8 °F - 29.1 °F 68% 30.22 in 10.0 mi Calm Calm - N/A   Clear
10:56 AM 45.0 °F 42.6 °F 29.1 °F 54% 30.21 in 10.0 mi SSE 4.6 mph - N/A   Clear
11:56 AM 47.8 °F - 27.1 °F 45% 30.21 in 10.0 mi South 6.9 mph - N/A   Clear
12:56 PM 50.9 °F - 26.1 °F 38% 30.19 in 10.0 mi South 8.1 mph - N/A   Mostly Cloudy
1:56 PM 50.0 °F - 25.2 °F 38% 30.17 in 10.0 mi Variable 5.8 mph - N/A   Clear
2:56 PM 52.9 °F - 25.2 °F 34% 30.16 in 10.0 mi SSW 3.5 mph - N/A   Clear
3:56 PM 52.9 °F - 26.1 °F 35% 30.15 in 10.0 mi South 10.4 mph - N/A   Clear
4:56 PM 50.9 °F - 25.2 °F 37% 30.19 in 10.0 mi SSW 3.5 mph - N/A   Mostly Cloudy
5:56 PM 48.9 °F - 26.1 °F 41% 30.19 in 10.0 mi South 4.6 mph - N/A   Partly Cloudy
6:56 PM 41.0 °F 36.4 °F 28.0 °F 60% 30.25 in 10.0 mi ESE 6.9 mph - N/A   Partly Cloudy
7:56 PM 36.0 °F 29.6 °F 28.0 °F 73% 30.27 in 10.0 mi ENE 8.1 mph - N/A   Clear
8:56 PM 34.9 °F 29.9 °F 27.1 °F 73% 30.27 in 10.0 mi ESE 5.8 mph - N/A   Clear
9:56 PM 34.0 °F - 27.1 °F 76% 30.24 in 10.0 mi Calm Calm - N/A   Clear
10:56 PM 31.1 °F - 27.1 °F 85% 30.23 in 10.0 mi Calm Calm - N/A   Clear
11:56 PM 32.9 °F - 26.1 °F 76% 30.22 in 10.0 mi Calm Calm - N/A   Partly Cloudy